TimeMST,TemperatureF,Dew PointF,Humidity,Sea Level PressureIn,VisibilityMPH,Wind Direction,Wind SpeedMPH,Gust SpeedMPH,PrecipitationIn,Events,Conditions,WindDirDegrees,DateUTC
12:53 AM,28.9,15.1,56,30.29,10.0,East,5.8,-,N/A,,Clear,100,2012-11-27 07:53:00
1:53 AM,27.0,15.1,61,30.30,10.0,Calm,Calm,-,N/A,,Clear,0,2012-11-27 08:53:00
2:53 AM,24.1,14.0,65,30.32,10.0,Calm,Calm,-,N/A,,Clear,0,2012-11-27 09:53:00
3:53 AM,19.9,12.0,71,30.34,10.0,Calm,Calm,-,N/A,,Clear,0,2012-11-27 10:53:00
4:53 AM,21.9,12.9,68,30.35,10.0,East,6.9,-,N/A,,Clear,100,2012-11-27 11:53:00
5:53 AM,23.0,12.9,65,30.39,10.0,East,3.5,-,N/A,,Clear,80,2012-11-27 12:53:00
6:53 AM,19.0,12.0,74,30.43,10.0,East,3.5,-,N/A,,Clear,90,2012-11-27 13:53:00
7:53 AM,23.0,15.1,72,30.43,10.0,East,5.8,-,N/A,,Clear,80,2012-11-27 14:53:00
8:53 AM,32.0,18.0,56,30.43,10.0,East,9.2,-,N/A,,Clear,100,2012-11-27 15:53:00
9:53 AM,35.1,15.1,44,30.42,10.0,Calm,Calm,-,N/A,,Clear,0,2012-11-27 16:53:00
10:53 AM,39.9,17.1,40,30.40,10.0,Calm,Calm,-,N/A,,Clear,0,2012-11-27 17:53:00
11:53 AM,44.1,16.0,32,30.36,10.0,West,3.5,-,N/A,,Clear,270,2012-11-27 18:53:00
12:53 PM,46.4,15.8,29,30.34,10.0,Calm,Calm,-,N/A,,Clear,0,2012-11-27 19:53:00
1:53 PM,48.9,15.1,26,30.31,10.0,Calm,Calm,-,N/A,,Clear,0,2012-11-27 20:53:00
2:53 PM,51.1,12.0,21,30.29,10.0,Calm,Calm,-,N/A,,Clear,0,2012-11-27 21:53:00
3:53 PM,51.1,12.0,21,30.30,10.0,West,4.6,-,N/A,,Clear,270,2012-11-27 22:53:00
4:53 PM,46.9,12.9,25,30.31,10.0,West,3.5,-,N/A,,Clear,280,2012-11-27 23:53:00
5:53 PM,37.9,10.9,33,30.34,10.0,East,4.6,-,N/A,,Clear,80,2012-11-28 00:53:00
6:53 PM,35.1,10.9,37,30.38,10.0,ENE,4.6,-,N/A,,Clear,60,2012-11-28 01:53:00
7:53 PM,33.1,12.0,42,30.39,10.0,East,5.8,-,N/A,,Clear,90,2012-11-28 02:53:00
8:53 PM,34.0,12.9,42,30.36,10.0,East,4.6,-,N/A,,Clear,100,2012-11-28 03:53:00
9:53 PM,33.1,14.0,46,30.36,10.0,East,5.8,-,N/A,,Clear,100,2012-11-28 04:53:00
10:53 PM,33.1,16.0,50,30.35,10.0,East,11.5,-,N/A,,Clear,100,2012-11-28 05:53:00
11:53 PM,32.0,15.1,50,30.35,10.0,SE,8.1,-,N/A,,Clear,130,2012-11-28 06:53:00